DELTA 1 R/B

基本信息
目录编号:
4298
目录名称:
DELTA 1 R/B
国际标识:
1970-003B
轨道中心:
EARTH
物体状态:
在轨
发射日期:
1970-01-15 UTC
国别:
美国 (US)
轨道信息
数据来源: 国际轨道数据
星历时间: 2026-07-13T22:51:21+0800
半长轴: 19146.681km
偏心率: 0.6502034
轨道倾角: 28.080°
近地点辐角: 88.780°
升交点赤经: 41.218°
平近点角: 339.430°
近地点: 319.306km
远地点: 25217.782km
周期: 439.440分钟
每日圈数: 3.276895
详细信息
发射场:
AFETR
轨道高度:
LEO
数据来源:
AOE Integration Group
参考系:
TEME
时间系统:
UTC
历元类型:
SGP4
2D轨道图
3D轨道图
轨道高度分析图
轨道倾角分析图
轨道综合分析图
查看轨道综合分析图